Find Starlink 4405

NORAD ID: 53201 Int'l Des: 2022-084 Owner: SPXS Country: US Constellation: starlink operational
LEOCIRCULARRETROGRADESSO

当前视图

正在加载3D地球...

About Starlink 4405

Starlink 4405 (NORAD 53201) is a starlink constellation satellite (v1.5) launched Jul 22, 2022 by SPXS of US. It operates in LEO, CIRCULAR, RETROGRADE, SSO orbit with a mass of 297.00 kg.

即将过境

Passes for default location (London). Set your location on the main map for personalized predictions.

高度历史

Loading altitude history...

两行轨道根数

1 53201U 22084N 26256.50002315 .00094941 00000-0 24884-2 0 9999
2 53201 97.4965 322.0024 0001804 93.2029 194.3292 15.38313416 5914
Epoch: Sep 13, 2026 • Age: 7 hours

当前状态

高度 458.9 km
远地点 / 近地点 N/A
速度 7.64 km/s
星下点 53.89°N, 37.25°E
发射日期 Jul 22, 2022
运行时间 4.1 years
类型 internet

技术详情

分类 Payload
质量 297.00 kg
干质量 275.00 kg
总质量 297.00 kg
长度 0.20 m
直径 2.80 m
跨度 9.00 m
形状 Box + pan
制造商 SPXS
平台类型 Starlink
阶段状态 In Orbit
所有者/国家 SPXS/US

Most Searched